DMSP 5D-2 F13 DEB, 42325

Orbit data source: Space-Track

DMSP 5D-2 F13 DEB, 42325 is space debris in SSO originally from a launch on Fri, 24 Mar 1995 UTC launched from the Air Force Western Test Range (AFWTR). Debris objects in space refer to the collection of defunct objects orbiting the Earth. Examples of debris include non-operational satellites, rocket bodies, and fragments generated from explosions, collisions, or faulty payload assembly.

Loading next visibility...
Identifier
42325, 1995-015JT
Orbit
SSO
Country
Flag of USUS
Related business
Manufacturer
Unknown
Mission
Spacecraft
Bus & Motor
Unknown
Mass
Unknown
Launch date (UTC)
1995-03-24 (31 years ago)
Launch vehicle
Unknown
Launch site
Air Force Western Test Range (AFWTR)
Object type
Payload
Rocket body
Debris
Shape & HBR
Unknown shape, 0.1 m
Radar Cross Section
Small (<0.1 m²)

Expand to show TLE details & history
Last TLE update: 4 days ago

TLE from 4 days ago
0 DMSP 5D-2 F13 DEB
1 42325U 95015JT  26097.06771297  .00007089  00000-0  21419-2 0  9992
2 42325  98.7176 142.7321 0008150   5.8879 354.2405 14.42683722542516
Epoch: 2026-04-07T01:37Z
TLE epoch observation values (Epoch: 2026-04-07T01:37:30.400Z)
Latitude
0.00003°
Longitude
-76.99432°
Altitude
746.809 km
Speed
7.484 km/s
True Right ascension
09h 30m 55s
True Declination
0° 00' 00"
Sunlit
Object was in full shadow at epoch
Visualization orbit readout
Latitude
Unknown
Longitude
Unknown
Altitude
Unknown
Speed
Unknown
Apparent Right ascension
Unknown
Apparent Declination
Unknown
Sunlit
N/A
Visualization observer readout
Local Sidereal Time
02:26:56
Azimuth
Unknown
Elevation
Unknown
Doppler factor
Unknown
Orbital elements
Apogee altitude
752.581 km
Perigee altitude
740.967 km
Semi-major axis
7,124.911 km
Eccentricity
0.00082
Inclination
98.7176°
RAAN
142.7321°
Arg. of periapsis
5.8879°
True anomaly
354.23112°
Mean anomaly
354.2405°
Eccentric anomaly
354.23581°
Mean motion
3.60889 °/min
Orbital period
99.75 mins
BSTAR
0.0021419
Loading maneuver chart data...
Computing Atmospheric mass density...

Documentation

Showing up to 5 results
|